Simultaneous Nadir Overpasses (SNOs) Predictions

Prediction of SNOs between METOP-A and TERRA Satellite Orbit:

Table of predicted SNOs for the next 14.0 days since TLE Epoch: 11/13/2020
Index Date (METOP-A) Time (METOP-A) Lat,Lon (METOP-A) SZA (METOP-A ) Date (TERRA) Time (TERRA) Lat,Lon (TERRA) SZA (TERRA ) Distance(km) Time Diff (sec)
1 11/14/2020 08:00:27 -81.37, -71.79 77.07 11/14/2020 08:00:53 -81.37, -71.92 77.08 2.29 26
2 11/14/2020 08:51:07 81.36, 95.99 102.99 11/14/2020 08:50:19 81.37, 95.83 102.96 3.05 48
3 11/17/2020 03:34:50 -81.38, -5.55 76.40 11/17/2020 03:35:08 -81.36, -5.59 76.41 1.78 18
4 11/17/2020 04:25:30 81.36, 162.21 103.65 11/17/2020 04:24:34 81.37, 162.14 103.62 1.28 56
5 11/19/2020 23:09:12 -81.37, 61.05 75.75 11/19/2020 23:09:22 -81.37, 61.08 75.74 0.75 10
6 11/19/2020 23:59:53 81.37,-131.59 104.27 11/19/2020 23:58:49 81.36,-131.60 104.23 1.23 64
7 11/22/2020 17:53:05 81.48, -44.66 104.39 11/22/2020 17:54:11 81.32, -41.06 104.71 62.32 66
8 11/22/2020 18:43:34 -81.37, 127.25 75.19 11/22/2020 18:43:36 -81.36, 127.33 75.18 1.72 2
9 11/22/2020 19:34:14 81.36, -65.03 104.86 11/22/2020 19:33:02 81.37, -64.99 104.84 0.85 72
10 11/25/2020 13:27:16 81.37, 26.22 105.34 11/25/2020 13:28:23 81.37, 26.27 105.37 0.90 67
